Regional Weather Roundup
Issued by NWS Upton, NY

Current Version | Previous Version | Text Only | Print | Product List | Glossary On
Versions: 1 2 3 4 5 6 7 8 9 10 11 12 13 14 15 16 17 18 19 20 21 22 23 24 25 26 27
000 ASUS41 KOKX 230505 RWROKX REGIONAL WEATHER ROUNDUP NATIONAL WEATHER SERVICE NEW YORK NY 100 AM EDT THU OCT 23 2014 NOTE: "FAIR" INDICATES FEW OR NO CLOUDS BELOW 12,000 FEET WITH NO SIGNIFICANT WEATHER AND/OR OBSTRUCTIONS TO VISIBILITY. NYZ071-072-176-178-NJZ106-104-230600- NEW YORK CITY METRO AREA CITY SKY/WX TMP DP RH WIND PRES REMARKS CENTRAL PARK CLOUDY 51 47 86 NE12G25 29.75F LAGUARDIA APRT CLOUDY 54 46 76 N16G24 29.72F KENNEDY INTL CLOUDY 53 47 79 N22G32 29.70F NEWARK/LIBERTY CLOUDY 52 48 86 N21G30 29.73F BRNX BOT. GARD N/A 50 46 87 W2 29.74S TETERBORO CLOUDY 53 45 74 N17G28 29.72F $$ NYZ177-179-078>081-230600- LONG ISLAND NEW YORK CITY SKY/WX TMP DP RH WIND PRES REMARKS FARMINGDALE CLOUDY 53 47 79 N18G29 29.69S ISLIP CLOUDY 53 48 83 N28G38 29.65F SHIRLEY CLOUDY 53 48 83 N16G35 29.67F WESTHAMPTON MOCLDY 54 48 80 N26G46 29.65F MONTAUK POINT N/A 55 52 89 N21G31 29.65F $$ NYZ052-065-067-230600- HUDSON VALLEY CITY SKY/WX TMP DP RH WIND PRES REMARKS WHITE PLAINS MOCLDY 51 45 79 N14G26 29.72S NEWBURGH CLOUDY 50 48 93 NE21G32 29.82S MONTGOMERY CLOUDY 50 46 86 NE17G23 29.81S POUGHKEEPSIE HVY RAIN 50 46 86 N14G22 29.83R FOG ALBANY LGT RAIN 52 42 69 N14G23 29.92S $$ NJZ001-105-106-008-010-013-015-019>022-104-230600- NEW JERSEY CITY SKY/WX TMP DP RH WIND PRES REMARKS NEWARK/LIBERTY CLOUDY 52 48 86 N21G30 29.73F TETERBORO CLOUDY 53 45 74 N17G28 29.72F CALDWELL CLOUDY 51 N/A N/A NE9G23 29.76S MORRISTOWN CLOUDY 54 46 76 N13G29 29.76S SOMERVILLE CLOUDY 52 47 83 N12G17 29.74F SUSSEX CLOUDY 52 46 80 N8 29.81F ANDOVER N/A 49 46 90 VRB7 29.80F TRENTON LGT RAIN 51 47 86 N16 29.75F MILLVILLE LGT RAIN 51 48 89 NW14G28 29.75F ATLANTIC CITY LGT RAIN 51 50 96 NW16G29 29.70F WRIGHTSTOWN LGT RAIN 50 50 100 NW15G23 29.71F TOMS RIVER CLOUDY 50 48 93 N9 29.70F BELMAR CLOUDY 50 45 81 N17G24 29.69F $$ PAZ047>061-062-071-230600- EASTERN PENNSYLVANIA CITY SKY/WX TMP DP RH WIND PRES REMARKS PHILADELPHIA LGT RAIN 52 47 83 NW18 29.77F ALLENTOWN LGT RAIN 51 45 79 N13G21 29.82F SCRANTON RAIN 48 43 82 N12 29.91S $$ CTZ002-004>006-009-010-012-RIZ004-006-007-MAZ004-011-015-230600- SOUTHERN NEW ENGLAND IN CT CITY SKY/WX TMP DP RH WIND PRES REMARKS BRADLEY INTL LGT RAIN 50 46 86 N16G24 29.78F HARTFORD CLOUDY 50 46 86 N18G28 29.77F DANBURY LGT RAIN 50 44 80 NE15G28 29.77F WTRBRY/OXFORD CLOUDY 48 43 81 NE16G25 29.76F BRIDGEPORT LGT RAIN 52 47 83 N32G46 29.69S MERIDEN CLOUDY 50 46 86 N12G23 29.76F NEW HAVEN LGT RAIN 51 47 86 N24G35 29.71R CHESTER CLOUDY 48 46 93 N12G22 29.72F GROTON CLOUDY 51 49 92 N25G38 29.66F WILLIMANTIC LGT RAIN 50 45 83 N20G28 29.75F IN RI CITY SKY/WX TMP DP RH WIND PRES REMARKS PROVIDENCE LGT RAIN 52 50 93 N23G29 29.74S BLOCK ISLAND CLOUDY 54 50 87 N23G36 29.64S WESTERLY LGT RAIN 53 49 86 N20G29 29.67F IN MA CITY SKY/WX TMP DP RH WIND PRES REMARKS BOSTON HVY RAIN 50 49 96 N32G44 29.74F FOG WORCESTER RAIN 45 44 97 N17G29 29.79F FOG WESTFIELD LGT RAIN 49 46 90 N18G28 29.81F PROVINCETOWN CLOUDY 57 54 88 NE21G33 29.70F NANTUCKET CLOUDY 60 59 96 E8 29.63S FOG $$ ANZ330-335-338-340-345-350-353-355-230600- COASTAL MARINE OBSERVATIONS STATION/POSITION TIME SKY/WX TEMP WIND PRES VSBY WAVE AIR SEA DIR/SP/G HT/PER (UTC) (F) (DEG/KT/KT) (MB) (MI) (FT/S) NY HARB ENTRANCE NOT AVBL 4S FIRE IS 0500 63 N/A 6/ 7 20S FIRE ISLAND 0500 58 63 20/ 29/ 35 1001.6 9/ 7 23SW MTP 0500 N/A 10/ 7 HUDSON CANYON 0500 62 67 30/ 23/ 27 998.9 10/ 9 EXECUTION ROCKS 0500 55 63 10/ 21/ 31 N/A WESTERN LI SOUND 0500 55 30/ 19/ 27 N/A 3/ 4 CENTRAL LI SOUND 0500 54 63 360/ 27/ 35 N/A 7/ 5 EASTERN LI SOUND 0400 56 63 40/ 25/ 33 N/A ROBBINS REEF 0500 53 360/ 24/ 32 1005.0 $$ >>>>>>>>>>>>>>>>>>>>>>>>>>>> KEY <<<<<<<<<<<<<<<<<<<<<<<<<<< > < > SKY/WX - SKY CONDITION/PRESENT WEATHER < > TMP - TEMPERATURE IN FAHRENHEIT < > DP - DEWPOINT IN FAHRENHEIT < > RH - RELATIVE HUMIDITY IN PERCENT < > WIND - DIRECTION AND SPEED IN MPH < > PRES - MEAN SEA LEVEL PRESSURE IN INCHES OF HG < > WCI - WIND CHILL INDEX < > VSB - VISIBILITY IN MILES < > HX - HEAT INDEX < > TC - TEMPERATURE IN CELSIUS < > VRB - VARIABLE WIND DIRECTION < > < >>>>>>>>>>>>>>>>>>>>>>>>>>>> KEY <<<<<<<<<<<<<<<<<<<<<<<<<<<

USA.gov is the U.S. government's official web portal to all federal, state and local government web resources and services.